Location: Hope
(40.9110°N, 74.9680°W)
Time: 05:08:33
(UTC-04:00)

ISS - Visible Passes

Search period start: 22 July 2018 00:00
Search period end: 01 August 2018 00:00
Orbit: 402 x 408 km, 51.6° (Epoch: 22 July)

Date Brightness Start Highest point End Pass type
(mag) Time Alt. Az. Time Alt. Az. Time Alt. Az.
22 Jul -0.4 00:44:58 10° NNW 00:46:34 13° N 00:48:10 10° NNE visible
22 Jul -1.4 02:21:14 10° NNW 02:23:57 23° NNE 02:26:41 10° ENE visible
22 Jul -3.9 03:57:25 10° WNW 04:00:40 58° SW 04:03:53 10° SE visible
22 Jul -1.5 22:13:57 10° W 22:16:47 26° NNW 22:19:37 10° NE visible
22 Jul -0.5 23:52:30 10° NW 23:54:08 13° N 23:55:46 10° NNE visible
23 Jul -0.8 01:29:18 10° NNW 01:30:55 17° N 01:30:55 17° N visible
23 Jul -2.3 21:21:25 10° WSW 21:24:32 40° NNW 21:27:39 10° NE visible
23 Jul -0.6 22:59:47 10° NW 23:01:42 14° N 23:03:37 10° NNE visible
24 Jul -0.7 00:37:17 10° NNW 00:39:13 15° N 00:39:32 14° NNE visible
24 Jul -0.8 22:06:58 10° WNW 22:09:17 17° NNW 22:11:35 10° NNE visible
24 Jul -0.6 23:45:08 10° NNW 23:46:46 13° N 23:48:25 10° NE visible
25 Jul -1.2 21:14:13 10° WNW 21:16:54 23° NNW 21:19:36 10° NNE visible
25 Jul -0.7 22:52:43 10° NNW 22:54:18 13° N 22:55:52 10° NNE visible
26 Jul -0.7 00:29:17 10° NNW 00:30:29 16° NNW 00:30:29 16° NNW visible
26 Jul -0.8 22:00:02 10° NW 22:01:49 14° N 22:03:36 10° NNE visible
26 Jul -1.0 23:37:16 10° NNW 23:39:20 15° NNE 23:39:49 15° NNE visible
27 Jul -0.9 21:07:12 10° NW 21:09:21 16° NNW 21:11:30 10° NNE visible
27 Jul -0.8 22:45:08 10° NNW 22:46:51 13° N 22:48:34 10° NE visible
28 Jul -0.6 00:21:09 10° NW 00:21:49 14° NNW 00:21:49 14° NNW visible
28 Jul -0.8 21:52:47 10° NNW 21:54:21 13° N 21:55:54 10° NNE visible
28 Jul -1.3 23:29:08 10° NNW 23:31:14 21° N 23:31:14 21° N visible
29 Jul -0.9 21:00:09 10° NW 21:01:49 13° N 21:03:30 10° NNE visible
29 Jul -1.2 22:37:07 10° NNW 22:39:19 17° NNE 22:40:41 14° NE visible
30 Jul -0.5 00:13:03 10° NW 00:13:18 12° NW 00:13:18 12° NW visible
30 Jul -1.0 21:45:01 10° NNW 21:46:49 14° N 21:48:39 10° NE visible
30 Jul -1.5 23:20:57 10° NW 23:22:46 25° NNW 23:22:46 25° NNW visible
31 Jul -1.0 20:52:42 10° NNW 20:54:17 13° N 20:55:52 10° NNE visible
31 Jul -2.0 22:28:54 10° NW 22:31:38 24° NNE 22:32:14 23° NE visible
